THORAD DELTA 1 DEB, 8154

Orbit data source: Space-Track

THORAD DELTA 1 DEB, 8154 is space debris in SSO originally from a launch on Fri, 15 Nov 1974 UTC launched from the Air Force Western Test Range (AFWTR). Debris objects in space refer to the collection of defunct objects orbiting the Earth. Examples of debris include non-operational satellites, rocket bodies, and fragments generated from explosions, collisions, or faulty payload assembly.

Loading next visibility...
Identifier
8154, 1974-089U
Orbit
SSO
Country
Flag of USUS
Related business
Manufacturer
Unknown
Mission
Spacecraft
Bus & Motor
Unknown
Mass
Unknown
Launch date (UTC)
1974-11-15 (51 years ago)
Launch vehicle
Unknown
Launch site
Air Force Western Test Range (AFWTR)
Object type
Payload
Rocket body
Debris
Shape & HBR
Unknown shape, 0.2 m
Radar Cross Section
Small (<0.1 m²)

Expand to show TLE details & history
Last TLE update: 12 hours ago

TLE from 12 hours ago
0 THORAD DELTA 1 DEB
1 08154U 74089U   25352.22945552 -.00000024  00000-0  14381-3 0  9994
2 08154 102.0684 351.8854 0005500 297.4907  77.1430 12.52428419335497
Epoch: 2025-12-18T05:30Z
TLE epoch observation values (Epoch: 2025-12-18T05:30:24.956Z)
Latitude
14.3391°
Longitude
179.0759°
Altitude
1,455.25 km
Speed
7.136 km/s
True Right ascension
23h 15m 04s
True Declination
14° 15' 51"
Sunlit
Object was in daylight at epoch
Visualization orbit readout
Latitude
Unknown
Longitude
Unknown
Altitude
Unknown
Speed
Unknown
Apparent Right ascension
Unknown
Apparent Declination
Unknown
Sunlit
N/A
Visualization observer readout
Local Sidereal Time
16:22:03
Azimuth
Unknown
Elevation
Unknown
Doppler factor
Unknown
Orbital elements
Apogee altitude
1,456.223 km
Perigee altitude
1,447.61 km
Semi-major axis
7,830.054 km
Eccentricity
0.00055
Inclination
102.0684°
RAAN
351.8854°
Arg. of periapsis
297.4907°
True anomaly
77.20445°
Mean anomaly
77.143°
Eccentric anomaly
77.17373°
Mean motion
3.13254 °/min
Orbital period
114.92 mins
BSTAR
0.00014381
Loading maneuver chart data...
Computing Atmospheric mass density...

Documentation

Showing up to 5 results
|